Other Surface Observations
Issued by NWS

Home | Current Version | Previous Version | Text Only | Print | Product List | Glossary On
Versions: 1 2 3 4 5 6 7 8 9 10 11 12 13 14 15 16 17 18 19 20 21 22 23 24 25 26 27 28 29 30 31 32 33 34 35 36 37 38 39 40 41 42 43 44 45 46 47 48 49 50
000
SXUS52 KTAE 282318
OSOTAE
OSOTAE
North Florida/South Alabama/Southwest Georgia Weather Roundup
National Weather Service Tallahassee Florida
600 PM EST WED JAN 28 2015

Note: "fair" indicates few or no clouds below 12,000 feet with no
significant weather and/or obstructions to visibility.

!FLZ017-115-028-034-025-290000
...North Florida...

CITY           SKY/WX    TMP DP  RH WIND       PRES   REMARKS
TALLAHASSEE    CLEAR     57  30  35 N5        30.25R
APALACHICOLA   CLEAR     54  40  59 SE5       30.24S
PERRY          CLEAR     54  33  44 CALM      30.26R
CROSS CITY       N/A     54  35  48 NE3       30.24R
JACKSONVILLE   PTCLDY    46  30  53 E7        30.26R WCI  42
$$

!FLZ112-006-005-002-011-290000
...Florida Panhandle...

CITY           SKY/WX    TMP DP  RH WIND       PRES   REMARKS
MARIANNA       CLEAR     53  34  48 E5        30.25S
BONIFAY        FAIR      54  32  43 CALM      30.26R
PANAMA CITY NW FAIR      57  35  43 N5        30.23R
TYNDALL AFB    CLEAR     57  34  41 NE5       30.24R
TYND DRONE APT FAIR      56  35  45 MISG      30.22S
DE FUNIAK SPR  FAIR      56  31  39 NE3       30.25R
EGLIN AFB      CLEAR     54  40  58 S5        30.24R
DESTIN         CLEAR     56  39  53 VRB3      30.24R
HURLBURT       CLEAR     55  37  50 S6        30.23S
CRESTVIEW      CLEAR     58  32  37 E3        30.25R
PENSACOLA      CLEAR     55  39  54 S9        30.23S
$$

!ALZ063-066-290000
...South Alabama...

CITY           SKY/WX    TMP DP  RH WIND       PRES   REMARKS
DOTHAN         CLEAR     54  31  41 E5        30.27S
OZARK CAIRNS   CLEAR     57  30  35 E3        30.23F
FT RUCKER HELI CLEAR     57  30  35 CALM      30.23S
RUCKER HELI 3  FAIR      56  31  39 E2        30.26R
RUCKER HELI 2  FAIR      56  29  35 E5        30.23S
FLORALA APT    CLEAR     56  32  40 CALM      30.25S
ANDALUSIA      CLEAR     62  31  31 CALM      30.23S
TROY           CLEAR     58  27  30 CALM      30.24S
EUFALA         FAIR      51  30  44 CALM      30.23F
MOBILE         PTCLDY    63  30  28 CALM      30.23S
$$

!GAZ120>161-290000
...Southwest and South Central Georgia...

CITY           SKY/WX    TMP DP  RH WIND       PRES   REMARKS
THOMASVILLE    FAIR      52  32  46 CALM      30.27R
BAINBRIDGE     CLEAR     54  36  50 NE3       30.27S
MOODY AFB      CLEAR     51  31  46 N6        30.25R
VALDOSTA       CLEAR     52  31  44 NE3       30.26R
MOULTRIE       CLEAR     52  34  50 CALM      30.27R
BLAKELY        CLEAR     54  32  43 E3        30.27S
ALBANY         CLEAR     52  31  44 NW3       30.28R
TIFTON         FAIR      50  34  53 CALM      30.26R
FITZGERALD     FAIR      52  26  36 CALM      30.29R
CORDELE        FAIR      51  32  47 CALM      30.28R
AMERICUS       FAIR      48  36  61 CALM      30.28R
HOMERVILLE     FAIR      52  36  54 CALM      30.26R
$$

!GMZ750-755-770-775-290000
...Coastal and Buoy Obs...

STATION/POSITION TIME  TEMP    WIND        PRES    VSBY  WAVE
                       AIR SEA DIR/SP/G                  HT/PER
                 (UTC) (F)     (DEG/KT/KT) (MB)    (MI)  (FT/S)
KEATON BEACH     2300   54      20/  3/  4 1024.5R
CEDAR KEY        2300   53     320/  4/  6 1024.2R
C TOWER          2300   51      70/  9/ 10 1024.0F
APALACHICOLA BUO 2300   55 68   30/ 12/ 16 1023.5F         2/ 4
PANAMA CITY BUOY 2153   58 70   40/  8/ 10 1024.3R         2/ 4
MOBILE BUOY      2221   60 69   70/ 10/ 10 1024.2R         2/ 5
ORANGE BCH AL BU 2300   58 63  160/  2/  4 1023.5F         1/ 4
$$



USA.gov is the U.S. government's official web portal to all federal, state and local government web resources and services.